RYR5XD EPKK-LICA

Flight info

Callsign RYR5XD
Flight time 1h 52m
Altitude 36000
Route BABKO DCT NIDOK DCT XOMBA DCT OLATI DCT KOPRY DCT ZDA DCT XAMIT DCT AGNIS M729 GIROV
Aircraft B738/M-SDE3FGIJ1LRWY/SB1

Departure

Time 2026-04-23 08:28
Airport Kraków John Paul II International Airport (EPKK)

Arrival

Time 2026-04-23 10:20
Airport Lamezia Terme Sant'Eufemia International Airport (LICA)
Time Latitude Longitude Altitude Speed Heading
2026-04-23 07:50 50.07353 19.80348 799 ft 0 kts 168°
2026-04-23 08:20 50.07365 19.80344 799 ft 4 kts 168°
2026-04-23 08:20 50.07391 19.80335 799 ft 4 kts 168°
2026-04-23 08:20 50.07413 19.80328 799 ft 4 kts 166°
2026-04-23 08:21 50.07433 19.80312 799 ft 4 kts 112°
2026-04-23 08:21 50.07434 19.80277 799 ft 4 kts 77°
2026-04-23 08:21 50.07432 19.80261 799 ft 1 kts 77°
2026-04-23 08:24 50.07434 19.80274 799 ft 3 kts 78°
2026-04-23 08:24 50.07442 19.80331 799 ft 7 kts 72°
2026-04-23 08:24 50.07479 19.80381 799 ft 7 kts 19°
2026-04-23 08:25 50.07525 19.80404 799 ft 7 kts 17°
2026-04-23 08:25 50.07578 19.80421 799 ft 9 kts 359°
2026-04-23 08:25 50.07646 19.80402 799 ft 11 kts 348°
2026-04-23 08:25 50.07727 19.80375 799 ft 13 kts 347°
2026-04-23 08:26 50.07813 19.80347 799 ft 12 kts 348°
2026-04-23 08:26 50.07888 19.80322 799 ft 11 kts 347°
2026-04-23 08:26 50.07959 19.80298 799 ft 10 kts 347°
2026-04-23 08:26 50.08011 19.80232 799 ft 10 kts 283°
2026-04-23 08:27 50.08001 19.80124 800 ft 10 kts 259°
2026-04-23 08:27 50.07967 19.79872 799 ft 54 kts 258°
2026-04-23 08:27 50.07837 19.78941 801 ft 120 kts 258°
2026-04-23 08:27 50.07632 19.77421 988 ft 157 kts 257°
2026-04-23 08:28 50.07373 19.75841 1992 ft 141 kts 261°
2026-04-23 08:28 50.07144 19.74311 2693 ft 154 kts 263°
2026-04-23 08:28 50.06893 19.72498 3030 ft 188 kts 263°
2026-04-23 08:28 50.06595 19.70403 3437 ft 205 kts 263°
2026-04-23 08:29 50.06134 19.68275 4034 ft 220 kts 244°
2026-04-23 08:29 50.05067 19.66403 4541 ft 247 kts 223°
2026-04-23 08:29 50.03436 19.65160 4997 ft 280 kts 197°
2026-04-23 08:29 50.01424 19.65136 5684 ft 297 kts 172°
2026-04-23 08:30 49.99411 19.65805 6603 ft 300 kts 168°
2026-04-23 08:30 49.97361 19.66548 7449 ft 304 kts 168°
2026-04-23 08:30 49.95270 19.67294 8258 ft 310 kts 168°
2026-04-23 08:30 49.93146 19.68028 9096 ft 315 kts 167°
2026-04-23 08:31 49.90991 19.68760 9957 ft 318 kts 167°
2026-04-23 08:31 49.88787 19.69393 10560 ft 330 kts 177°
2026-04-23 08:31 49.86464 19.68774 10717 ft 351 kts 207°
2026-04-23 08:31 49.84268 19.66956 11194 ft 363 kts 213°
2026-04-23 08:32 49.82084 19.65023 11887 ft 369 kts 213°
2026-04-23 08:32 49.79835 19.63027 12648 ft 374 kts 212°
2026-04-23 08:32 49.77554 19.61022 13404 ft 379 kts 212°
2026-04-23 08:32 49.75233 19.59002 14108 ft 385 kts 211°
2026-04-23 08:33 49.72874 19.56964 14773 ft 390 kts 211°
2026-04-23 08:33 49.70490 19.54917 15540 ft 392 kts 211°
2026-04-23 08:33 49.68115 19.52884 16251 ft 395 kts 211°
2026-04-23 08:33 49.65699 19.50817 16938 ft 399 kts 211°
2026-04-23 08:34 49.63251 19.48725 17619 ft 403 kts 211°
2026-04-23 08:34 49.60783 19.46616 18276 ft 408 kts 211°
2026-04-23 08:34 49.58290 19.44434 18868 ft 411 kts 211°
2026-04-23 08:34 49.55844 19.42253 19533 ft 411 kts 212°
2026-04-23 08:35 49.53368 19.40034 20171 ft 413 kts 212°
2026-04-23 08:35 49.50873 19.37797 20763 ft 417 kts 211°
2026-04-23 08:35 49.48356 19.35548 21368 ft 419 kts 211°
2026-04-23 08:35 49.45827 19.33295 21977 ft 421 kts 211°
2026-04-23 08:36 49.43282 19.31035 22566 ft 423 kts 211°
2026-04-23 08:36 49.40720 19.28763 23117 ft 427 kts 211°
2026-04-23 08:36 49.38130 19.26471 23665 ft 430 kts 211°
2026-04-23 08:36 49.35568 19.24207 24138 ft 432 kts 211°
2026-04-23 08:37 49.32950 19.21897 24557 ft 436 kts 211°
2026-04-23 08:37 49.30311 19.19571 24997 ft 438 kts 211°
2026-04-23 08:37 49.27658 19.17236 25411 ft 442 kts 211°
2026-04-23 08:37 49.24981 19.14882 25806 ft 445 kts 211°
2026-04-23 08:38 49.22278 19.12508 26217 ft 449 kts 211°
2026-04-23 08:38 49.19560 19.10124 26606 ft 452 kts 211°
2026-04-23 08:38 49.16813 19.07717 26982 ft 456 kts 211°
2026-04-23 08:38 49.14078 19.05324 27320 ft 459 kts 211°
2026-04-23 08:39 49.11283 19.02882 27681 ft 463 kts 211°
2026-04-23 08:39 49.08483 19.00439 28078 ft 465 kts 211°
2026-04-23 08:39 49.05658 18.97978 28444 ft 468 kts 211°
2026-04-23 08:39 49.02809 18.95498 28750 ft 473 kts 211°
2026-04-23 08:40 48.99968 18.93029 29082 ft 476 kts 211°
2026-04-23 08:40 48.97080 18.90522 29439 ft 479 kts 211°
2026-04-23 08:40 48.94171 18.88000 29786 ft 481 kts 211°
2026-04-23 08:40 48.91244 18.85465 30101 ft 484 kts 210°
2026-04-23 08:41 48.88301 18.82921 30369 ft 487 kts 210°
2026-04-23 08:41 48.85298 18.80478 30629 ft 491 kts 207°
2026-04-23 08:41 48.79071 18.76116 31045 ft 498 kts 204°
2026-04-23 08:42 48.75892 18.73996 31410 ft 497 kts 204°
2026-04-23 08:42 48.72726 18.71880 31819 ft 496 kts 204°
2026-04-23 08:42 48.69579 18.69755 32233 ft 495 kts 204°
2026-04-23 08:42 48.67499 18.68340 32492 ft 494 kts 204°
2026-04-23 08:43 48.64361 18.66190 32790 ft 495 kts 204°
2026-04-23 08:43 48.61212 18.64025 33052 ft 497 kts 204°
2026-04-23 08:43 48.57045 18.61155 33535 ft 496 kts 204°
2026-04-23 08:43 48.54922 18.59694 33803 ft 495 kts 204°
2026-04-23 08:44 48.51829 18.57568 34163 ft 494 kts 204°
2026-04-23 08:44 48.48697 18.55421 34431 ft 494 kts 204°
2026-04-23 08:44 48.45572 18.53282 34756 ft 492 kts 204°
2026-04-23 08:44 48.42466 18.51159 35190 ft 487 kts 204°
2026-04-23 08:45 48.39396 18.49064 35620 ft 483 kts 204°
2026-04-23 08:45 48.36331 18.46976 35836 ft 482 kts 204°
2026-04-23 08:45 48.33284 18.44903 36085 ft 479 kts 203°
2026-04-23 08:45 48.30244 18.42837 36128 ft 480 kts 203°
2026-04-23 08:46 48.24166 18.38716 36137 ft 477 kts 203°
2026-04-23 08:46 48.18163 18.34655 36142 ft 474 kts 203°
2026-04-23 08:47 48.12155 18.30601 36146 ft 472 kts 203°
2026-04-23 08:47 48.06176 18.26578 36149 ft 470 kts 203°
2026-04-23 08:48 48.00198 18.22565 36150 ft 470 kts 203°
2026-04-23 08:48 47.94251 18.18583 36155 ft 472 kts 203°
2026-04-23 08:49 47.88240 18.14568 36165 ft 474 kts 203°
2026-04-23 08:49 47.82192 18.10537 36162 ft 476 kts 203°
2026-04-23 08:50 47.76124 18.06503 36162 ft 478 kts 203°
2026-04-23 08:50 47.70162 18.02144 36162 ft 480 kts 206°
2026-04-23 08:51 47.64235 17.97509 36164 ft 482 kts 207°
2026-04-23 08:51 47.58294 17.92890 36160 ft 482 kts 206°
2026-04-23 08:52 47.52370 17.88350 36160 ft 481 kts 206°
2026-04-23 08:52 47.46405 17.83811 36165 ft 480 kts 206°
2026-04-23 08:53 47.40456 17.79297 36193 ft 479 kts 206°
2026-04-23 08:53 47.34567 17.74836 36200 ft 478 kts 206°
2026-04-23 08:54 47.28645 17.70361 36202 ft 477 kts 206°
2026-04-23 08:54 47.22744 17.65913 36204 ft 476 kts 206°
2026-04-23 08:55 47.16886 17.61509 36198 ft 474 kts 206°
2026-04-23 08:55 47.11008 17.57100 36199 ft 474 kts 206°
2026-04-23 08:56 47.05160 17.52724 36193 ft 473 kts 206°
2026-04-23 08:56 46.99279 17.48333 36192 ft 473 kts 206°
2026-04-23 08:57 46.93350 17.44072 36201 ft 473 kts 204°
2026-04-23 08:57 46.87411 17.39962 36214 ft 474 kts 204°
2026-04-23 08:58 46.81446 17.35834 36214 ft 474 kts 204°
2026-04-23 08:58 46.75508 17.31602 36203 ft 475 kts 206°
2026-04-23 08:59 46.69696 17.27077 36214 ft 476 kts 207°
2026-04-23 08:59 46.63864 17.22490 36213 ft 476 kts 206°
2026-04-23 09:00 46.58008 17.17945 36214 ft 476 kts 206°
2026-04-23 09:00 46.52142 17.13439 36214 ft 477 kts 206°
2026-04-23 09:01 46.46260 17.08941 36217 ft 478 kts 206°
2026-04-23 09:01 46.40401 17.04471 36212 ft 478 kts 206°
2026-04-23 09:02 46.34516 16.99991 36214 ft 477 kts 206°
2026-04-23 09:02 46.28663 16.95544 36219 ft 477 kts 206°
2026-04-23 09:03 46.22767 16.91077 36211 ft 477 kts 206°
2026-04-23 09:03 46.16891 16.86635 36213 ft 476 kts 206°
2026-04-23 09:04 46.11050 16.82230 36221 ft 476 kts 205°
2026-04-23 09:04 46.05179 16.77814 36213 ft 476 kts 205°
2026-04-23 09:05 45.99300 16.73402 36215 ft 475 kts 205°
2026-04-23 09:05 45.93425 16.69004 36219 ft 475 kts 205°
2026-04-23 09:06 45.87592 16.64648 36210 ft 475 kts 205°
2026-04-23 09:06 45.81705 16.60261 36215 ft 475 kts 205°
2026-04-23 09:07 45.75833 16.55897 36228 ft 475 kts 205°
2026-04-23 09:07 45.69987 16.51562 36223 ft 475 kts 204°
2026-04-23 09:08 45.64095 16.47203 36214 ft 475 kts 204°
2026-04-23 09:08 45.58249 16.42889 36216 ft 475 kts 204°
2026-04-23 09:09 45.52361 16.38554 36220 ft 475 kts 204°
2026-04-23 09:09 45.46477 16.34232 36223 ft 475 kts 204°
2026-04-23 09:10 45.37685 16.27793 36235 ft 475 kts 204°
2026-04-23 09:11 45.31792 16.23490 36217 ft 475 kts 204°
2026-04-23 09:11 45.25935 16.19223 36227 ft 475 kts 204°
2026-04-23 09:12 45.20056 16.14950 36232 ft 474 kts 204°
2026-04-23 09:12 45.14195 16.10701 36228 ft 474 kts 204°
2026-04-23 09:13 45.08319 16.06450 36231 ft 474 kts 204°
2026-04-23 09:13 45.02430 16.02199 36238 ft 474 kts 204°
2026-04-23 09:14 44.96554 15.97969 36227 ft 473 kts 204°
2026-04-23 09:14 44.90718 15.93776 36230 ft 473 kts 204°
2026-04-23 09:15 44.84865 15.89580 36250 ft 472 kts 203°
2026-04-23 09:15 44.79004 15.85389 36237 ft 472 kts 203°
2026-04-23 09:16 44.73172 15.81229 36238 ft 472 kts 203°
2026-04-23 09:16 44.67315 15.77060 36254 ft 472 kts 203°
2026-04-23 09:17 44.61440 15.72888 36224 ft 474 kts 203°
2026-04-23 09:17 44.55546 15.68711 36225 ft 475 kts 203°
2026-04-23 09:18 44.49640 15.64536 36239 ft 476 kts 203°
2026-04-23 09:18 44.43708 15.60351 36222 ft 478 kts 203°
2026-04-23 09:19 44.37796 15.56190 36218 ft 479 kts 203°
2026-04-23 09:19 44.31827 15.51998 36203 ft 480 kts 203°
2026-04-23 09:20 44.25908 15.47848 36208 ft 470 kts 203°
2026-04-23 09:20 44.20085 15.43778 36213 ft 467 kts 203°
2026-04-23 09:21 44.14258 15.39714 36215 ft 468 kts 203°
2026-04-23 09:21 44.08431 15.35650 36218 ft 469 kts 204°
2026-04-23 09:22 44.02643 15.31443 36204 ft 469 kts 205°
2026-04-23 09:22 43.96922 15.27224 36213 ft 468 kts 205°
2026-04-23 09:23 43.91165 15.23003 36213 ft 468 kts 205°
2026-04-23 09:23 43.85403 15.18806 36221 ft 467 kts 205°
2026-04-23 09:24 43.79638 15.14621 36227 ft 467 kts 205°
2026-04-23 09:24 43.73920 15.10478 36228 ft 466 kts 205°
2026-04-23 09:25 43.68161 15.06315 36237 ft 466 kts 205°
2026-04-23 09:25 43.62418 15.02172 36236 ft 465 kts 205°
2026-04-23 09:26 43.56672 14.98035 36242 ft 466 kts 205°
2026-04-23 09:26 43.50920 14.93903 36241 ft 466 kts 205°
2026-04-23 09:27 43.45156 14.89771 36229 ft 466 kts 205°
2026-04-23 09:27 43.39430 14.85674 36235 ft 467 kts 206°
2026-04-23 09:28 43.33602 14.81640 36225 ft 467 kts 199°
2026-04-23 09:28 43.27329 14.79607 36230 ft 461 kts 180°
2026-04-23 09:29 43.20971 14.79491 36234 ft 460 kts 177°
2026-04-23 09:29 43.14537 14.79494 36238 ft 462 kts 177°
2026-04-23 09:30 43.08091 14.79452 36238 ft 464 kts 177°
2026-04-23 09:30 43.01653 14.79373 36233 ft 465 kts 178°
2026-04-23 09:31 42.95165 14.79279 36228 ft 466 kts 178°
2026-04-23 09:31 42.88707 14.79186 36234 ft 466 kts 178°
2026-04-23 09:32 42.82199 14.79094 36224 ft 467 kts 179°
2026-04-23 09:32 42.75714 14.79004 36224 ft 467 kts 179°
2026-04-23 09:33 42.69250 14.78914 36214 ft 466 kts 179°
2026-04-23 09:33 42.62764 14.78824 36206 ft 466 kts 179°
2026-04-23 09:34 42.56288 14.78734 36213 ft 465 kts 179°
2026-04-23 09:34 42.49815 14.78645 36213 ft 465 kts 179°
2026-04-23 09:35 42.43373 14.78556 36215 ft 465 kts 180°
2026-04-23 09:35 42.37981 14.78482 36215 ft 465 kts 180°
2026-04-23 09:36 42.31508 14.78393 36222 ft 465 kts 180°
2026-04-23 09:36 42.25032 14.78304 36205 ft 466 kts 180°
2026-04-23 09:37 42.18535 14.78216 36218 ft 467 kts 180°
2026-04-23 09:37 42.12030 14.78127 36206 ft 468 kts 180°
2026-04-23 09:38 42.05490 14.78038 36212 ft 470 kts 180°
2026-04-23 09:38 41.98974 14.77949 36207 ft 472 kts 181°
2026-04-23 09:39 41.92380 14.77860 36208 ft 473 kts 181°
2026-04-23 09:39 41.85771 14.77770 36197 ft 475 kts 181°
2026-04-23 09:40 41.79196 14.77681 36204 ft 475 kts 181°
2026-04-23 09:40 41.72566 14.77592 36198 ft 475 kts 181°
2026-04-23 09:41 41.65934 14.77503 36186 ft 476 kts 181°
2026-04-23 09:41 41.59345 14.77415 36172 ft 475 kts 181°
2026-04-23 09:42 41.52745 14.77326 36184 ft 474 kts 181°
2026-04-23 09:42 41.46196 14.77239 36183 ft 473 kts 181°
2026-04-23 09:43 41.39606 14.77151 36154 ft 472 kts 182°
2026-04-23 09:43 41.33025 14.77064 36179 ft 471 kts 182°
2026-04-23 09:44 41.26485 14.76976 36173 ft 472 kts 182°
2026-04-23 09:44 41.19909 14.76889 36168 ft 472 kts 183°
2026-04-23 09:45 41.13378 14.76803 36152 ft 471 kts 183°
2026-04-23 09:45 41.06808 14.76716 36150 ft 471 kts 183°
2026-04-23 09:46 41.00241 14.76630 36138 ft 471 kts 183°
2026-04-23 09:46 40.93714 14.76544 36146 ft 470 kts 183°
2026-04-23 09:47 40.87153 14.76457 36155 ft 470 kts 183°
2026-04-23 09:47 40.80636 14.76372 36135 ft 470 kts 184°
2026-04-23 09:48 40.74088 14.76287 36130 ft 470 kts 184°
2026-04-23 09:48 40.67581 14.76202 36131 ft 469 kts 184°
2026-04-23 09:49 40.61056 14.76117 36132 ft 469 kts 184°
2026-04-23 09:49 40.54510 14.76032 36132 ft 470 kts 185°
2026-04-23 09:50 40.47957 14.75946 36136 ft 470 kts 185°
2026-04-23 09:50 40.41441 14.75862 36135 ft 471 kts 185°
2026-04-23 09:51 40.34881 14.75777 36131 ft 471 kts 185°
2026-04-23 09:51 40.31613 14.75736 36001 ft 468 kts 185°
2026-04-23 09:51 40.28374 14.75697 35676 ft 462 kts 186°
2026-04-23 09:51 40.25178 14.75658 35317 ft 457 kts 186°
2026-04-23 09:52 40.22000 14.75618 34950 ft 454 kts 186°
2026-04-23 09:52 40.18857 14.75578 34581 ft 451 kts 186°
2026-04-23 09:52 40.15725 14.75537 34183 ft 448 kts 187°
2026-04-23 09:52 40.12648 14.75497 33768 ft 446 kts 188°
2026-04-23 09:53 40.09561 14.75457 33359 ft 443 kts 188°
2026-04-23 09:53 40.06480 14.75417 32968 ft 439 kts 188°
2026-04-23 09:53 40.03427 14.75378 32594 ft 436 kts 188°
2026-04-23 09:53 40.00386 14.75339 32223 ft 433 kts 188°
2026-04-23 09:54 39.97415 14.75301 31862 ft 430 kts 188°
2026-04-23 09:54 39.94429 14.75262 31480 ft 428 kts 189°
2026-04-23 09:54 39.91460 14.75223 31128 ft 425 kts 189°
2026-04-23 09:54 39.88501 14.75185 30778 ft 423 kts 189°
2026-04-23 09:55 39.85594 14.75148 30433 ft 420 kts 189°
2026-04-23 09:55 39.82647 14.75468 30000 ft 435 kts 171°
2026-04-23 09:55 39.79853 14.77098 29651 ft 445 kts 150°
2026-04-23 09:55 39.77549 14.79801 29230 ft 447 kts 131°
2026-04-23 09:56 39.75574 14.82903 28887 ft 444 kts 130°
2026-04-23 09:56 39.73642 14.86027 28496 ft 441 kts 129°
2026-04-23 09:56 39.71733 14.89124 28142 ft 438 kts 130°
2026-04-23 09:56 39.69848 14.92158 27789 ft 435 kts 130°
2026-04-23 09:57 39.67943 14.95195 27433 ft 432 kts 130°
2026-04-23 09:57 39.66033 14.98214 27082 ft 430 kts 131°
2026-04-23 09:57 39.64137 15.01193 26730 ft 427 kts 131°
2026-04-23 09:57 39.62247 15.04152 26389 ft 424 kts 131°
2026-04-23 09:58 39.60361 15.07098 26036 ft 422 kts 131°
2026-04-23 09:58 39.58487 15.10024 25692 ft 420 kts 131°
2026-04-23 09:58 39.56623 15.12930 25350 ft 418 kts 131°
2026-04-23 09:58 39.54791 15.15785 25011 ft 416 kts 131°
2026-04-23 09:59 39.52949 15.18654 24677 ft 414 kts 131°
2026-04-23 09:59 39.51111 15.21513 24341 ft 412 kts 131°
2026-04-23 09:59 39.49284 15.24353 23995 ft 410 kts 131°
2026-04-23 09:59 39.47454 15.27196 23643 ft 409 kts 131°
2026-04-23 10:00 39.45633 15.30022 23227 ft 407 kts 131°
2026-04-23 10:00 39.43821 15.32832 22845 ft 405 kts 131°
2026-04-23 10:00 39.42021 15.35620 22519 ft 401 kts 131°
2026-04-23 10:00 39.40261 15.38345 22181 ft 399 kts 131°
2026-04-23 10:01 39.38487 15.41089 21846 ft 396 kts 131°
2026-04-23 10:01 39.36728 15.43806 21513 ft 393 kts 131°
2026-04-23 10:01 39.34980 15.46505 21183 ft 390 kts 131°
2026-04-23 10:01 39.33242 15.49185 20854 ft 387 kts 131°
2026-04-23 10:02 39.31514 15.51848 20525 ft 385 kts 131°
2026-04-23 10:02 39.29797 15.54493 20198 ft 382 kts 131°
2026-04-23 10:02 39.28095 15.57113 19878 ft 379 kts 130°
2026-04-23 10:02 39.26401 15.59718 19558 ft 377 kts 130°
2026-04-23 10:03 39.24741 15.62269 19246 ft 374 kts 130°
2026-04-23 10:03 39.23072 15.64831 18944 ft 372 kts 130°
2026-04-23 10:03 39.21407 15.67385 18619 ft 370 kts 130°
2026-04-23 10:03 39.19852 15.70026 18280 ft 368 kts 124°
2026-04-23 10:04 39.18428 15.72759 17921 ft 365 kts 123°
2026-04-23 10:04 39.17051 15.75498 17553 ft 362 kts 122°
2026-04-23 10:04 39.15707 15.78174 17263 ft 358 kts 122°
2026-04-23 10:04 39.14329 15.80889 16935 ft 356 kts 123°
2026-04-23 10:05 39.12985 15.83511 16621 ft 353 kts 123°
2026-04-23 10:05 39.11631 15.86134 16307 ft 351 kts 123°
2026-04-23 10:05 39.10277 15.88742 15994 ft 348 kts 123°
2026-04-23 10:05 39.08930 15.91329 15683 ft 346 kts 123°
2026-04-23 10:06 39.07588 15.93900 15354 ft 344 kts 123°
2026-04-23 10:06 39.06259 15.96445 15054 ft 342 kts 123°
2026-04-23 10:06 39.04949 15.98948 14743 ft 340 kts 123°
2026-04-23 10:06 39.03633 16.01462 14465 ft 338 kts 123°
2026-04-23 10:07 39.02319 16.03971 14147 ft 337 kts 123°
2026-04-23 10:07 39.01008 16.06471 13827 ft 335 kts 123°
2026-04-23 10:07 38.99717 16.08931 13491 ft 334 kts 123°
2026-04-23 10:07 38.98424 16.11394 13156 ft 332 kts 123°
2026-04-23 10:08 38.97133 16.13852 12841 ft 329 kts 123°
2026-04-23 10:08 38.95853 16.16286 12535 ft 327 kts 123°
2026-04-23 10:08 38.94579 16.18708 12218 ft 325 kts 123°
2026-04-23 10:09 38.92078 16.23456 11621 ft 321 kts 123°
2026-04-23 10:09 38.90823 16.25833 11320 ft 319 kts 123°
2026-04-23 10:09 38.89641 16.28230 11029 ft 316 kts 119°
2026-04-23 10:09 38.88565 16.30692 10728 ft 314 kts 117°
2026-04-23 10:10 38.87524 16.33147 10438 ft 313 kts 117°
2026-04-23 10:10 38.86487 16.35589 10204 ft 310 kts 118°
2026-04-23 10:10 38.85455 16.38001 10019 ft 305 kts 118°
2026-04-23 10:10 38.84443 16.40351 9699 ft 305 kts 118°
2026-04-23 10:11 38.83414 16.42728 9399 ft 303 kts 118°
2026-04-23 10:11 38.82390 16.45085 9117 ft 301 kts 118°
2026-04-23 10:11 38.81372 16.47423 8855 ft 298 kts 118°
2026-04-23 10:11 38.80365 16.49737 8578 ft 295 kts 118°
2026-04-23 10:12 38.79376 16.52002 8307 ft 293 kts 118°
2026-04-23 10:12 38.78383 16.54275 8046 ft 291 kts 119°
2026-04-23 10:12 38.77398 16.56535 7768 ft 289 kts 117°
2026-04-23 10:12 38.76819 16.58971 7454 ft 286 kts 90°
2026-04-23 10:13 38.77149 16.61432 7185 ft 279 kts 64°
2026-04-23 10:13 38.78210 16.63470 6899 ft 272 kts 41°
2026-04-23 10:13 38.79765 16.64789 6616 ft 267 kts 19°
2026-04-23 10:13 38.81552 16.65241 6262 ft 265 kts 358°
2026-04-23 10:14 38.83341 16.64772 5964 ft 263 kts 336°
2026-04-23 10:14 38.84836 16.63458 5729 ft 260 kts 314°
2026-04-23 10:14 38.85853 16.61608 5623 ft 253 kts 297°
2026-04-23 10:14 38.86373 16.59490 5304 ft 248 kts 285°
2026-04-23 10:15 38.86744 16.57316 4908 ft 247 kts 282°
2026-04-23 10:15 38.87026 16.55150 4558 ft 243 kts 280°
2026-04-23 10:15 38.87267 16.53014 4218 ft 237 kts 279°
2026-04-23 10:15 38.87497 16.50944 3883 ft 231 kts 279°
2026-04-23 10:16 38.87725 16.48921 3550 ft 225 kts 279°
2026-04-23 10:16 38.87943 16.46989 3253 ft 218 kts 279°
2026-04-23 10:16 38.88158 16.45094 2966 ft 211 kts 279°
2026-04-23 10:16 38.88366 16.43257 2694 ft 205 kts 279°
2026-04-23 10:17 38.88569 16.41472 2433 ft 199 kts 279°
2026-04-23 10:17 38.88766 16.39729 2181 ft 195 kts 279°
2026-04-23 10:17 38.88962 16.38013 1927 ft 193 kts 279°
2026-04-23 10:17 38.89154 16.36330 1673 ft 186 kts 279°
2026-04-23 10:18 38.89336 16.34734 1417 ft 176 kts 279°
2026-04-23 10:18 38.89509 16.33222 1161 ft 166 kts 282°
2026-04-23 10:18 38.89667 16.31844 957 ft 148 kts 283°
2026-04-23 10:18 38.89814 16.30570 789 ft 146 kts 280°
2026-04-23 10:19 38.89960 16.29287 581 ft 143 kts 278°
2026-04-23 10:19 38.90103 16.28027 407 ft 143 kts 277°
2026-04-23 10:19 38.90252 16.26753 232 ft 145 kts 276°
2026-04-23 10:19 38.90400 16.25478 48 ft 141 kts 275°
2026-04-23 10:20 38.90520 16.24366 29 ft 101 kts 278°
2026-04-23 10:20 38.90595 16.23783 29 ft 36 kts 282°
2026-04-23 10:20 38.90654 16.23619 33 ft 14 kts 309°
2026-04-23 10:20 38.90711 16.23522 33 ft 13 kts 309°
2026-04-23 10:21 38.90786 16.23480 31 ft 8 kts
2026-04-23 10:21 38.90830 16.23524 31 ft 8 kts 61°
2026-04-23 10:21 38.90837 16.23601 31 ft 9 kts 97°
2026-04-23 10:21 38.90826 16.23692 31 ft 11 kts 99°
2026-04-23 10:22 38.90812 16.23810 31 ft 16 kts 98°
2026-04-23 10:22 38.90796 16.23953 29 ft 16 kts 98°
2026-04-23 10:22 38.90779 16.24093 30 ft 15 kts 99°
2026-04-23 10:22 38.90806 16.24206 31 ft 8 kts 54°
2026-04-23 10:23 38.90830 16.24271 31 ft 8 kts 89°
2026-04-23 10:23 38.90823 16.24342 30 ft 8 kts 98°
2026-04-23 10:23 38.90818 16.24409 31 ft 7 kts 85°
2026-04-23 10:23 38.90852 16.24437 31 ft 3 kts
2026-04-23 10:24 38.90863 16.24439 31 ft 0 kts
2026-04-23 10:24 38.90866 16.24440 31 ft 1 kts 11°
2026-04-23 10:24 38.90873 16.24449 29 ft 2 kts 45°
2026-04-23 10:24 38.90874 16.24450 29 ft 0 kts 49°